Weather History for KLXT - September, 2013

Change the Weather History Date:

Friday, September 20, 2013

  Actual Average (KOJC) Record (KOJC)
Temperature  
Mean Temperature 62 °F 67 °F  
Max Temperature 69 °F 77 °F 93 °F (1948)
Min Temperature 55 °F 57 °F 38 °F (1991)
Degree Days  
Heating Degree Days 3 2  
Month to date heating degree days 14  
Since 1 July heating degree days 15  
Cooling Degree Days 0 4  
Month to date cooling degree days 127  
Year to date cooling degree days 1292  
Growing Degree Days 12 (Base 50)    
Moisture  
Dew Point 52 °F    
Average Humidity 67    
Maximum Humidity 90    
Minimum Humidity 44    
Precipitation  
Precipitation 0.00 in 0.12 in 2.30 in (1993)
Month to date precipitation 3.26  
Year to date precipitation 31.22  
Sea Level Pressure  
Sea Level Pressure 29.99 in    
Wind  
Wind Speed 9 mph (NW)    
Max Wind Speed 15 mph    
Max Gust Speed 22 mph    
Visibility 10 miles    
Events      
T = Trace of Precipitation, MM = Missing Value Source: NWS Daily Summary

Daily Weather History Graph

Daily Weather History Graph

Search for Another Location

Airport or City:

Trip Planner

Search our weather history database for the weather conditions in past years. The results will help you decide how hot, cold, wet, or windy it might be!

Date:

Astronomy

Sep. 20, 2013 Rise Set
Actual Time 7:03 AM CDT 7:17 PM CDT
Civil Twilight 6:36 AM CDT 7:43 PM CDT
Nautical Twilight 6:05 AM CDT 8:15 PM CDT
Astronomical Twilight 5:33 AM CDT 8:46 PM CDT
Moon 7:52 PM CDT (9/20) 8:18 AM CDT (9/20)
Length of Visible Light 13h 06m
Length of Day
12h 13m
Full, 98% of the Moon is Illuminated
Sep 20
Full
Sep 26
Last Quarter
Oct 4
New
Oct 11
First Quarter
Oct 18
Full

Hourly Weather History & Observations

Time (CDT) Temp. Dew Point Humidity Pressure Visibility Wind Dir Wind Speed Gust Speed Precip Events Conditions
12:53 AM 68.0 °F 64.9 °F 90% 29.90 in 10.0 mi NW 5.8 mph - N/A   Overcast
1:53 AM 66.9 °F 64.0 °F 90% 29.92 in 10.0 mi North 10.4 mph - N/A   Overcast
2:34 AM 66.2 °F 60.8 °F 83% 29.97 in 10.0 mi NNW 10.4 mph - N/A   Overcast
2:53 AM 64.9 °F 60.1 °F 84% 29.94 in 10.0 mi North 15.0 mph 21.9 mph N/A   Overcast
3:53 AM 63.0 °F 55.9 °F 78% 29.95 in 10.0 mi NNW 6.9 mph - N/A   Clear
4:53 AM 62.1 °F 55.0 °F 78% 29.97 in 10.0 mi NW 5.8 mph - N/A   Overcast
5:53 AM 61.0 °F 54.0 °F 78% 29.97 in 10.0 mi NW 8.1 mph - N/A   Scattered Clouds
6:53 AM 60.1 °F 53.1 °F 78% 29.99 in 10.0 mi NNW 8.1 mph - N/A   Clear
7:53 AM 60.1 °F 52.0 °F 75% 30.02 in 10.0 mi NNW 11.5 mph - N/A   Clear
8:53 AM 61.0 °F 52.0 °F 72% 30.03 in 10.0 mi NNW 12.7 mph - N/A   Clear
9:53 AM 61.0 °F 50.0 °F 67% 30.05 in 10.0 mi NNW 13.8 mph 19.6 mph N/A   Clear
10:53 AM 63.0 °F 48.9 °F 60% 30.05 in 10.0 mi NNW 9.2 mph - N/A   Clear
11:53 AM 64.9 °F 48.9 °F 56% 30.04 in 10.0 mi NW 11.5 mph - N/A   Clear
12:53 PM 66.0 °F 48.0 °F 52% 30.03 in 10.0 mi NW 10.4 mph - N/A   Clear
1:53 PM 66.9 °F 48.0 °F 51% 30.00 in 10.0 mi NNW 11.5 mph - N/A   Clear
2:53 PM 68.0 °F 48.0 °F 49% 29.99 in 10.0 mi NW 11.5 mph - N/A   Clear
3:53 PM 69.1 °F 46.0 °F 44% 29.97 in 10.0 mi NW 6.9 mph - N/A   Clear
4:53 PM 69.1 °F 46.9 °F 45% 29.97 in 10.0 mi North 9.2 mph - N/A   Clear
5:53 PM 69.1 °F 48.0 °F 47% 29.97 in 10.0 mi NW 6.9 mph - N/A   Clear
6:53 PM 64.9 °F 50.0 °F 58% 29.96 in 10.0 mi NNW 5.8 mph - N/A   Clear
7:53 PM 63.0 °F 48.9 °F 60% 29.98 in 10.0 mi NW 5.8 mph - N/A   Clear
8:53 PM 61.0 °F 48.9 °F 64% 29.99 in 10.0 mi NW 3.5 mph - N/A   Clear
9:53 PM 57.9 °F 48.9 °F 72% 29.99 in 10.0 mi NW 5.8 mph - N/A   Clear
10:53 PM 55.9 °F 48.9 °F 77% 30.00 in 10.0 mi WNW 3.5 mph - N/A   Clear
11:53 PM 55.9 °F 48.9 °F 77% 30.00 in 10.0 mi West 3.5 mph - N/A   Clear